Weather History for Peoria, IL

Change the Weather History Date:

Sunday, July 6, 2014

  Actual Average Record
Temperature  
Mean Temperature 76 °F 76 °F  
Max Temperature 86 °F 86 °F 106 °F (1936)
Min Temperature 66 °F 66 °F 48 °F (1972)
Degree Days  
Heating Degree Days 0 0  
Month to date heating degree days 0 0  
Since 1 June heating degree days 0 18  
Since 1 July heating degree days 0 0  
Cooling Degree Days 11 11  
Month to date cooling degree days 32 64  
Year to date cooling degree days 482 367  
Since 1 June cooling degree days 324 286  
Growing Degree Days 25 (Base 50)    
Moisture  
Dew Point 67 °F    
Average Humidity 74    
Maximum Humidity 87    
Minimum Humidity 61    
Precipitation  
Precipitation 0.05 in 0.12 in 2.55 in (1939)
Month to date precipitation 0.55 0.73  
Year to date precipitation 22.20 18.59  
Snow  
Snow 0.00 in 0.00 in 0.00 in ()
Month to date snowfall 0.0 0.0  
Since 1 June snowfall 0.0 0.0  
Since 1 July snowfall 0.0 0.0  
Snow Depth 0.00 in    
Sea Level Pressure  
Sea Level Pressure 29.90 in    
Wind  
Wind Speed 10 mph (SSW)    
Max Wind Speed 20 mph    
Max Gust Speed 24 mph    
Visibility 9 miles    
Events Rain , Thunderstorm    
T = Trace of Precipitation, MM = Missing Value Source: NWS Daily Summary

Daily Weather History Graph

Daily Weather History Graph

Search for Another Location

Airport:

Trip Planner

Search our weather history database for the weather conditions in past years. The results will help you decide how hot, cold, wet, or windy it might be!

Date:

Astronomy

Jul. 06, 2014 Rise Set
Actual Time 5:34 AM CDT 8:32 PM CDT
Civil Twilight 5:01 AM CDT 9:05 PM CDT
Nautical Twilight 4:19 AM CDT 9:47 PM CDT
Astronomical Twilight 3:30 AM CDT 10:35 PM CDT
Moon 2:31 PM CDT (7/6) 12:54 AM CDT (7/6)
Length of Visible Light 16h 04m
Length of Day
14h 58m
Waxing Gibbous, 62% of the Moon is Illuminated
Jul 6
Waxing Gibbous
Jul 12
Full
Jul 18
Last Quarter
Jul 26
New
Aug 3
First Quarter

Hourly Weather History & Observations

Time (CDT) Temp. Heat Index Dew Point Humidity Pressure Visibility Wind Dir Wind Speed Gust Speed Precip Events Conditions
12:54 AM 66.0 °F - 61.0 °F 84% 30.03 in 10.0 mi SSE 5.8 mph - N/A   Mostly Cloudy
1:54 AM 66.0 °F - 61.0 °F 84% 30.01 in 10.0 mi SSE 3.5 mph - N/A   Overcast
2:54 AM 66.9 °F - 61.0 °F 81% 29.98 in 10.0 mi South 5.8 mph - N/A   Mostly Cloudy
3:54 AM 66.9 °F - 61.0 °F 81% 29.96 in 10.0 mi South 5.8 mph - N/A   Mostly Cloudy
4:54 AM 66.9 °F - 61.0 °F 81% 29.94 in 9.0 mi South 6.9 mph - N/A   Mostly Cloudy
5:54 AM 66.9 °F - 62.1 °F 84% 29.95 in 10.0 mi SSW 8.1 mph - N/A   Mostly Cloudy
6:54 AM 69.1 °F - 63.0 °F 81% 29.96 in 10.0 mi SSW 9.2 mph - N/A   Mostly Cloudy
7:54 AM 71.1 °F - 64.9 °F 81% 29.94 in 10.0 mi SSW 10.4 mph - N/A   Scattered Clouds
8:54 AM 75.0 °F - 66.9 °F 76% 29.95 in 10.0 mi SW 10.4 mph - N/A   Partly Cloudy
9:26 AM 77.0 °F - 68.0 °F 74% 29.97 in 10.0 mi SW 16.1 mph - N/A   Mostly Cloudy
9:54 AM 77.0 °F - 69.1 °F 76% 29.95 in 6.0 mi WSW 12.7 mph - 0.00 in Rain Light Rain
10:03 AM 73.9 °F - 68.0 °F 82% 29.96 in 3.0 mi SW 13.8 mph - 0.04 in Rain , Thunderstorm Thunderstorms and Rain
10:36 AM 77.0 °F - 71.1 °F 82% 29.94 in 10.0 mi SSW 12.7 mph - 0.05 in Thunderstorm Mostly Cloudy
10:54 AM 73.9 °F - 69.1 °F 85% 29.94 in 9.0 mi South 15.0 mph - 0.05 in Thunderstorm Scattered Clouds
11:02 AM 73.9 °F - 69.1 °F 85% 29.94 in 7.0 mi South 9.2 mph - 0.00 in Rain Light Rain
11:54 AM 78.1 °F - 69.1 °F 74% 29.91 in 10.0 mi South 3.5 mph - 0.00 in   Clear
12:54 PM 80.1 °F 83.2 °F 70.0 °F 71% 29.91 in 10.0 mi SSW 17.3 mph - N/A   Scattered Clouds
1:54 PM 82.0 °F 85.9 °F 70.0 °F 67% 29.87 in 10.0 mi SSW 13.8 mph - N/A   Clear
2:54 PM 84.0 °F 88.4 °F 70.0 °F 63% 29.86 in 10.0 mi SW 11.5 mph - N/A   Clear
3:54 PM 84.9 °F 92.1 °F 73.9 °F 69% 29.83 in 10.0 mi SSW 11.5 mph - N/A   Scattered Clouds
4:54 PM 84.9 °F 90.1 °F 71.1 °F 63% 29.82 in 10.0 mi SSW 16.1 mph - N/A   Clear
5:54 PM 84.0 °F 88.4 °F 70.0 °F 63% 29.80 in 10.0 mi SW 16.1 mph - N/A   Clear
6:54 PM 84.0 °F 88.4 °F 70.0 °F 63% 29.81 in 10.0 mi SW 12.7 mph - N/A   Clear
7:54 PM 81.0 °F 84.9 °F 71.1 °F 72% 29.81 in 10.0 mi SSW 6.9 mph - N/A   Clear
8:54 PM 79.0 °F - 71.1 °F 77% 29.80 in 10.0 mi SW 8.1 mph - N/A   Clear
9:54 PM 78.1 °F - 70.0 °F 76% 29.80 in 10.0 mi SSW 8.1 mph - N/A   Clear
10:54 PM 75.9 °F - 69.1 °F 79% 29.82 in 10.0 mi SW 5.8 mph - N/A   Partly Cloudy
11:54 PM 77.0 °F - 69.1 °F 76% 29.79 in 10.0 mi SW 12.7 mph - N/A   Scattered Clouds